Tracking 18957 objects as of 22-Jan-2018
HD Live streaming from Space Station
objects crossing your sky now

FENGYUN 1C DEB

Track FENGYUN 1C DEB now!
10-day predictions


NORAD ID: 39537
Int'l Code: 1999-025EWE
Perigee: 847.8 km
Apogee: 1,136.0 km
Inclination: 99.1 °
Period: 104.8 minutes
Semi major axis: 7362 km
RCS: Unknown
Launch date: May 10, 1999
Source: People's Republic of China (PRC)
Launch site: Taiyaun Space Center, China (TSC)

Note: This is SATELLITE DEBRIS
aabbcc
Your satellite tracking list
Your tracking list is empty




NASA's NSSDC Master Catalog

Two Line Element Set (TLE):
1 39537U 99025EWE 18022.46504103 +.00000748 +00000-0 +72963-3 0  9997
2 39537 099.1392 253.8995 0195701 063.2151 298.8872 13.74140881196012
Source of the keplerian elements: AFSPC